Location: Barrio Las Umbrías
(40.4173°N, 4.8685°W)
Time: 13:33:15
(UTC+00:00)

Meteor 1-25 Rocket - Pass Details

Date: 17 August 2022
Orbit: 836 x 892 km, 81.2° (Epoch: 27 September)

Event Time Altitude Azimuth Distance (km) Brightness Sun altitude
Exits shadow 21:32:35 23° 200° (SSW) 1,742 5.6 -23.4°
Maximum altitude 21:36:11 71° 280° (W) 895 4.4 -23.8°
Drops below altitude 10° 21:41:46 10° 5° (N) 2,464 7.1 -24.6°
Sets 21:44:11 0° 8° (N) 3,399 7.9 -24.9°
